Current weather by "City, St" or "zip code"  
 
Advertise Here

Current Conditions: Somerset, Somerset-Pulaski County - J.T. Wilson Field Airport, KY

Overcast


37.0 F

Last Updated on Jan 27 2021, 1:55 pm EST
Humidity: 65%
Wind Speed: NW 8.1 mph
Barometer 30.10 in
Dewpoint: 26.6 F
Visibility: 10.00 mi
Precip: --
Heat Index: NA
Wind Chill: 31 F
Current conditions at:

Somerset, Somerset-Pulaski County - J.T. Wilson Field Airport, KY (KSME)

Lat: 37.05417 Lon: 84.615

Local Radar Image active severe weather and emergency alerts image image weather storm and storm spotter reports image weather observation monitoring service image
Local
Radar
Active
Alerts
Storm Reports Obs
Monitoring

Sign-up For Email & Text Message Weather Alert Notification Services


Advertise Here

Observation History for Somerset, Somerset-Pulaski County - J.T. Wilson Field Airport, KY


Time Wind
(mph)
Vis
(mi)
Weather Precip (in) Temperature (F) Relative
Humidity
Wind
Chill
(F)
Heat
Index
(F)
Pressure
Air Dwpt altimeter
(in)
sea level
(mb)
Rmks
1:55 pm EST NW 8.1 10.00 Overcast -- 37.0 26.6 65% 31 NA 30.10 M
1:35 pm EST NW 9.2 10.00 Overcast -- 39.0 28.4 65% 33 NA 30.10 M
12:55 pm EST NW 10.4 10.00 Overcast -- 39.0 28.4 65% 32 NA 30.10 M
12:35 pm EST N 6.9 10.00 Overcast -- 39.0 28.4 65% 34 NA 30.10 M
11:55 am EST N 6.9 10.00 Overcast -- 37.0 28.4 70% 32 NA 30.13 M
10:55 am EST N 8.1 10.00 Overcast -- 36.0 26.6 70% 30 NA 30.13 M
9:55 am EST NE 10.4 10.00 Overcast -- 34.0 24.8 70% 26 NA 30.11 M
9:35 am EST N 11.5 10.00 Overcast -- 34.0 24.8 70% 26 NA 30.12 M
8:55 am EST N 6.9 10.00 Overcast -- 34.0 24.8 70% 28 NA 30.13 M
7:55 am EST NE 5.8 10.00 Overcast -- 32.0 24.8 75% 26 NA 30.12 M
6:55 am EST NE 5.8 10.00 Mostly Cloudy -- 32.0 23.0 69% 26 NA 30.13 M
5:55 am EST N 9.2 10.00 Overcast -- 34.0 24.8 70% 27 NA 30.15 M
4:55 am EST N 5.8 10.00 Overcast -- 34.0 26.6 75% 29 NA 30.15 M
4:35 am EST N 6.9 10.00 Overcast -- 36.0 26.6 70% 30 NA 30.15 M
3:55 am EST N 9.2 10.00 Overcast -- 36.0 28.4 75% 29 NA 30.14 M
2:55 am EST N 6.9 10.00 Overcast -- 37.0 28.4 70% 32 NA 30.13 M
2:35 am EST N 4.6 10.00 Overcast -- 37.0 28.4 70% 33 NA 30.12 M
1:55 am EST N 5.8 10.00 Overcast -- 37.0 30.2 75% 32 NA 30.10 M
12:55 am EST NW 5.8 10.00 Overcast -- 39.0 30.2 70% 35 NA 30.08 M
12:35 am EST NW 5.8 10.00 Overcast -- 39.0 32.0 75% 35 NA 30.09 M
11:55 pm EST NW 3.5 10.00 Overcast -- 39.0 32.0 75% NA NA 30.08 M
10:55 pm EST NW 5.8 10.00 Partly Cloudy -- 39.0 32.0 75% 35 NA 30.06 M
9:55 pm EST NW 3.5 10.00 Fair -- 41.0 32.0 70% NA NA 30.04 M
8:55 pm EST W 5.8 10.00 Fair -- 45.0 33.8 66% 42 NA 30.01 M

Regional Weather Observation


Stuart Powell Field Airport, KY (KDVK)

Overcast
36.0 F

London, London-Corbin Airport-Magee Field, KY (KLOZ)

Mostly Cloudy
42.0 F

Central Kentucky Regional Airport, KY (KRGA)

Overcast
37.0 F

Central Kentucky Regional Airport, KY (KRGA)

Overcast
37.0 F

Taylor County Airport, KY (KAAS)

Overcast
37.0 F

Lebanon-Springfield Airport, KY (K6I2)

Overcast
37.0 F